This is the latest recevied weather packets stored in our database for station/object KG5APU. If no packets are shown the sender has not sent any weather packets the latest 10 day(s).
| Time | Temp. | Humidity | Pressure | Rain* | Wind** | Luminosity | Snow |
|---|---|---|---|---|---|---|---|
| 1777414133 | 25° C | 90% | 1010.2 hPa | 0 mm | - | 10 W/m² | - |
| 1777413531 | 25.56° C | 90% | 1011.2 hPa | 0 mm | - | 15 W/m² | - |
| 1777412928 | 25.56° C | 89% | 1011.8 hPa | 0 mm | - | 11 W/m² | - |
| 1777412324 | 25.56° C | 89% | 1011.2 hPa | 0 mm | - | 11 W/m² | - |
| 1777411719 | 25.56° C | 88% | 1011.5 hPa | 0 mm | - | 4 W/m² | - |
| 1777411114 | 25.56° C | 88% | 1010.9 hPa | 0 mm | - | 10 W/m² | - |
| 1777410513 | 25.56° C | 88% | 1010.6 hPa | 0 mm | - | 20 W/m² | - |
| 1777409908 | 25.56° C | 88% | 1010.7 hPa | 0 mm | - | 34 W/m² | - |
| 1777409305 | 25.56° C | 88% | 1011 hPa | 0 mm | - | 19 W/m² | - |
| 1777408704 | 25.56° C | 87% | 1010.3 hPa | 0 mm | - | 66 W/m² | - |
| 1777408100 | 26.11° C | 87% | 1010 hPa | 0 mm | - | 62 W/m² | - |
| 1777407498 | 26.11° C | 86% | 1009.9 hPa | 0 mm | - | 74 W/m² | - |
| 1777406894 | 26.67° C | 86% | 1010.3 hPa | 0 mm | - | 81 W/m² | - |
| 1777406291 | 26.67° C | 84% | 1010.3 hPa | 0 mm | - | 168 W/m² | - |
| 1777405686 | 27.22° C | 83% | 1010.3 hPa | 0 mm | - | 219 W/m² | - |
| 1777405086 | 27.78° C | 82% | 1010.6 hPa | 0 mm | - | 601 W/m² | - |
| 1777404482 | 27.78° C | 82% | 1010.9 hPa | 0 mm | - | 689 W/m² | - |
| 1777403880 | 27.78° C | 82% | 1011.4 hPa | 0 mm | - | 593 W/m² | - |
| 1777403281 | 27.78° C | 83% | 1011.9 hPa | 0 mm | - | 406 W/m² | - |
| 1777402676 | 27.22° C | 83% | 1011.9 hPa | 0 mm | - | 376 W/m² | - |
| 1777402075 | 27.22° C | 84% | 1011.9 hPa | 0 mm | - | 717 W/m² | - |
| 1777401470 | 27.22° C | 84% | 1012.6 hPa | 0 mm | - | 657 W/m² | - |
| 1777400868 | 27.78° C | 82% | 1012.1 hPa | 0 mm | - | 402 W/m² | - |
| 1777400268 | 27.78° C | 83% | 1012.5 hPa | 0 mm | - | 750 W/m² | - |
| 1777399666 | 27.78° C | 81% | 1012.7 hPa | 0 mm | - | 890 W/m² | - |
* Rain latest hour (hover to see other rain measurements)
** Current wind speed in m/s (hover to see current wind gust speed)